• Join FlightAware (Why Join?)
  • Login
  • US Flag GB Flag 
23:15 EDT


 

Airport Tracker/Info


-or-


 

Live Flight TrackerFlight Track Log ✈ GJS3710 ✈ 27-Jun-2013 ✈ KORD - KALB

Flight Track Log - Related Links

Times and Time Zones

All times are in EDT time to prevent confusion due to time zone crossing. See the GJS3710 flight status page for this flight to view local times or setup timezone preferences in your user account.

Time Position Orientation Groundspeed Altitude Reporting Facility
EDT Latitude Longitude Course Direction KTS MPH feet Rate Location/Type
21:43 41.9833 -87.8628 92° East 195 224 1,700  Level Chicago Center
21:44 41.9808 -87.7767 92° East 231 266 3,600 1,800 Climbing Chicago Center
21:45 42.0011 -87.6867 73° East 282 325 5,500 2,040 Climbing Chicago Center
21:46 42.0547 -87.7272 331° Northwest 262 302 7,900 2,220 Climbing Chicago Center
21:47 42.1103 -87.7800 325° Northwest 270 311 10,200 2,460 Climbing Chicago Center
21:48 42.2036 -87.7819 359° North 282 325 13,100 2,280 Climbing Chicago Center
21:49 42.2817 -87.7781 North 283 326 14,900 1,740 Climbing Chicago Center
21:50 42.3606 -87.7400 20° North 311 358 16,700 1,860 Climbing Chicago Center
21:51 42.4364 -87.6692 35° Northeast 330 380 18,800 1,440 Climbing Chicago Center
21:52 42.4836 -87.5536 61° Northeast 374 430 19,700 900 Climbing Chicago Center
21:53 42.5092 -87.4017 77° East 408 470 20,700 1,020 Climbing Chicago Center
21:54 42.5433 -87.2139 76° East 426 490 21,900 1,020 Climbing Chicago Center
21:55 42.5725 -87.0500 76° East 444 511 22,900 960 Climbing Chicago Center
21:56 42.6044 -86.8758 76° East 459 528 24,000 1,020 Climbing Chicago Center
21:57 42.6336 -86.7039 77° East 467 537 25,000 960 Climbing Chicago Center
21:58 42.6650 -86.5306 76° East 473 544 26,000 960 Climbing Chicago Center
21:59 42.6950 -86.3572 77° East 475 547 27,000 960 Climbing Chicago Center
22:00 42.7242 -86.1822 77° East 478 550 28,000 1,020 Climbing Chicago Center
22:01 42.7811 -85.9853 68° East 475 547 29,200 1,020 Climbing Chicago Center
22:02 42.8214 -85.8169 72° East 481 554 30,200 960 Climbing Chicago Center
22:03 42.8492 -85.6428 78° East 482 555 31,200 960 Climbing Chicago Center
22:04 42.8758 -85.4686 78° East 475 547 32,200 960 Climbing Chicago Center
22:05 42.9033 -85.2961 78° East 470 541 33,200 1,020 Climbing Chicago Center
22:06 42.9333 -85.0931 79° East 460 529 34,400 1,020 Climbing Chicago Center
22:07 42.9581 -84.9244 79° East 455 524 35,300 720 Climbing Chicago Center
22:08 42.9819 -84.7581 79° East 451 519 35,900 540 Climbing Chicago Center
22:09 43.0053 -84.5917 79° East 448 516 36,500 480 Climbing Chicago Center
22:10 43.0294 -84.4231 79° East 452 520 37,000 240 Climbing Chicago Center
22:11 43.0408 -84.2508 85° East 463 533 37,000  Level Chicago Center
22:12 43.0439 -84.0492 89° East 448 516 37,000  Level Cleveland Center
22:13 43.0469 -83.8703 89° East 459 528 37,000  Level Cleveland Center
22:14 43.0478 -83.6886 90° East 464 534 37,000  Level Cleveland Center
22:15 43.0525 -83.5097 88° East 464 534 37,000  Level Cleveland Center
22:16 43.0547 -83.3308 89° East 464 534 37,000  Level Cleveland Center
22:17 43.0547 -83.1517 90° East 464 534 37,000  Level Cleveland Center
22:18 43.0564 -82.9728 89° East 469 540 37,000  Level Cleveland Center
22:19 43.0561 -82.7853 90° East 479 551 37,000  Level Cleveland Center
22:20 43.0594 -82.6036 88° East 479 551 37,000  Level Cleveland Center
22:21 43.0583 -82.4131 90° East 479 551 37,000  Level Cleveland Center
22:22 43.0592 -82.2283 90° East 484 557 37,000  Level Cleveland Center
22:24 43.0333 -81.9833 98° East 490 564 37,000  Level Toronto Center
22:25 43.0500 -81.7833 83° East 490 564 37,000  Level Toronto Center
22:26 43.0500 -81.6000 90° East 490 564 37,000  Level Toronto Center
22:27 43.0500 -81.4167 90° East 500 575 37,000  Level Toronto Center
22:28 43.0333 -81.2333 97° East 490 564 37,000  Level Toronto Center
22:29 43.0333 -81.0500 90° East 490 564 37,000  Level Toronto Center
22:30 43.0333 -80.8667 90° East 480 552 37,000  Level Toronto Center
22:31 43.0500 -80.6667 83° East 480 552 37,000  Level Toronto Center
22:32 43.0333 -80.5000 98° East 480 552 37,000  Level Toronto Center
22:33 43.0333 -80.3000 90° East 480 552 37,000  Level Toronto Center
22:34 43.0333 -80.1333 90° East 480 552 37,000  Level Toronto Center
22:35 43.0333 -79.9333 90° East 480 552 37,000  Level Toronto Center
22:36 43.0167 -79.7667 98° East 470 541 37,000  Level Toronto Center
22:37 43.0167 -79.5833 90° East 470 541 37,000  Level Toronto Center
22:38 43.0167 -79.4000 90° East 470 541 37,000  Level Toronto Center
22:39 43.0167 -79.2167 90° East 470 541 37,000  Level Toronto Center
22:40 43.0167 -79.0667 90° East 470 541 37,000  Level Toronto Center
22:41 43.0000 -78.8833 97° East 460 529 37,000  Level Toronto Center
22:42 43.0000 -78.7000 90° East 460 529 37,000 -360 Level Toronto Center
22:43 43.0000 -78.5167 90° East 460 529 36,300 -900 Descending Toronto Center
22:44 42.9833 -78.3500 98° East 450 518 35,300 -1,080 Descending Toronto Center
22:45 42.9667 -78.1833 98° East 450 518 34,200 -1,020 Descending Toronto Center
22:46 42.9667 -78.0167 90° East 450 518 33,300 -960 Descending Toronto Center
22:47 42.9667 -77.8333 90° East 470 541 32,300 -1,080 Descending Toronto Center
22:48 42.9667 -77.6667 90° East 440 506 31,200 -1,020 Descending Toronto Center
22:49 42.9500 -77.5167 99° East 440 506 30,300 -1,020 Descending Toronto Center
22:50 42.9333 -77.3333 97° East 440 506 29,200 -660 Descending Toronto Center
22:51 42.9333 -77.1667 90° East 430 495 29,000 -120 Descending Toronto Center
22:52 42.9436 -77.0783 81° East 457 526 29,000  Level Boston Center
22:53 42.9358 -76.9131 94° East 445 512 29,000  Level Boston Center
22:54 42.9278 -76.7394 94° East 445 512 29,000  Level Boston Center
22:55 42.9197 -76.5631 94° East 456 525 29,000 -300 Level Boston Center
22:56 42.9114 -76.3839 94° East 472 543 28,500 -600 Descending Boston Center
22:57 42.9025 -76.2217 94° East 472 543 27,900 -300 Descending Boston Center
22:58 42.8956 -76.0483 93° East 472 543 27,900 -600 Level Boston Center
22:59 42.8842 -75.8747 95° East 466 536 26,800 -1,860 Descending Boston Center
23:00 42.8747 -75.7042 94° East 455 524 24,200 -2,340 Descending Boston Center
23:01 42.8658 -75.5706 95° East 450 518 22,200 -2,520 Descending Boston Center
23:02 42.8564 -75.3803 94° East 431 496 19,200 -2,880 Descending Boston Center
23:03 42.8456 -75.2294 96° East 416 479 16,500 -2,400 Descending Boston Center
23:04 42.8386 -75.0878 94° East 392 451 14,400 -1,800 Descending Boston Center
23:05 42.8292 -74.9486 95° East 377 434 13,000 -1,320 Descending Boston Center
23:06 42.8194 -74.8150 96° East 360 414 11,800 -1,140 Descending Boston Center
23:06 42.8117 -74.6872 95° East 369 425 11,000 -600 Descending Boston Center
23:07 42.8050 -74.6106 97° East 373 429 11,000 60 Level Boston Center
23:08 42.7997 -74.5456 96° East 356 410 11,100 -120 Climbing Boston Center
23:09 42.7686 -74.4311 110° East 303 349 10,800 -900 Descending Boston Center
23:10 42.7408 -74.3511 115° Southeast 272 313 9,300 -1,860 Descending Boston Center
23:11 42.7069 -74.2483 114° Southeast 262 302 7,100 -1,740 Descending Boston Center
23:12 42.6711 -74.1400 114° Southeast 262 302 5,200 -1,320 Descending Boston Center
23:13 42.6372 -74.0403 115° Southeast 242 278 4,000 -600 Descending Boston Center
23:14 42.6150 -73.9778 116° Southeast 235 270 4,000 -540 Level Boston Center
23:15 42.5869 -73.8894 113° Southeast 218 251 3,000 -720 Descending Boston Center
23:16 42.5817 -73.8275 97° East 182 209 2,600 -540 Descending Boston Center
23:17 42.6297 -73.8003 23° Northeast 193 222 2,000 -420 Descending Boston Center
23:18 42.6239 -73.7775 109° East 132 152 2,000 16,740 Level Boston Center
23:19 42.6886 -73.7675 North 132 152 28,000 12,840 Climbing Boston Center
23:20 42.7142 -73.7314 46° Northeast 132 152 28,000  Level Boston Center
23:21 42.7414 -73.6981 42° Northeast 132 152 28,000  Level Boston Center